SL-8 R/B (25723 NORAD) Tracking and Keplerian Element Data

This shows tracking and keplerian element data for the satellite.

Feedback or suggestion? Click here.




ElementValue
Catalog25723
NameSL-8 R/B
Epoch Orbit6784
Epoch Day198.86157825
Epoch Year2018
RAAN207.9144
Inclination48.4141
Eccentricity0.0007343
Argument of Perigee151.5105
Mean Anonmoly208.6245
Mean Motion15.6010001
Decay Rate5.116E-05
L11 25723U 99022C 18198.86157825 .00005116 00000-0 67588-4 0 9991
L22 25723 48.4141 207.9144 0007343 151.5105 208.6245 15.60100010 67841

Live tracking and technical data element details for SL-8 R/B (NORAD 25723). SL-8 R/B can be tracked NOW for your location showing map with azimuth and elevation plus other details from your city location.

Track the satellite on the map from your city or location and see movement details for azimuth, elevation, latitude, longitude, range, height, and movement on the map or in text.







IsCatalogInMostPopularTable: catalog: 25723, numindb: 25
Update: records affected: 1



GetName: 25723 SL-8 R/B

Hit Count: updated at: Fri, 20 Jul 2018 02:39:25 GMT